Aeroporto :
LOGIN :

Iscrizione | Disclaimer

   EN    FR    IT 

 










Sommario :    VFR   VFR Marginale   IFR   IFR Intensivo   IFR Molto Intensivo
Visibilità : 
Base nubi : 
>= 8 km
>= 3000ft
5 / 8 km
1000 / 3000 ft
1500m / 5 km
500 / 1000 ft
800 / 1500m
200 / 500 ft
< 800m
< 200 ft
Simboli :   Temporali  Nebbia  Neve Forte  Precipitazioni Forti  Vento > 20 kt
SIGMETs :   Varie  Temporali  Ghiacco  Turbolenza  Onda orograficha  Ceneri Vulcaniche







- Altitudine del aeroporto : 390 ft
- Codice IATA : NQY
- Carte del aeroporto


EGHQ - Newquay

ULTIMO METAR :
  • 180720Z 03009KT 9999 BKN040 11/08 Q1026

METARs OBSOLETI :
  • 180650Z 03006KT 9999 BKN035 11/09 Q1026
  • 180620Z 04008KT 9999 BKN032 11/09 Q1025
  • 180550Z 05007KT 9999 BKN030 11/09 Q1025

TAF TAF EGHQ
Valido dal 18 a 06 ore il 18 a 15 ore UTC


180640Z 1806/1815 05008KT 9999 FEW020
Nessun NOTAM noto per questo aeroporto.



MetMap, La meteo Aeronautica in un colpo d'occhio ! - Copyright ORBIFLY Dicembre 2007 - Disclaimer

ORBIFLY MET'MAP TEAM :

Programmazione e sviluppo : Alexandra Zaïnal
Concezione e sviluppo : Baudouin d'Aumeries
Co-Programmazione e sviluppo : Marc-Olivier Méhu
Supporto tecnico e logistico : Manuel Goepfert
Aiuto per la traduzione : Arnaldo La Scala

Contatto : metmap@orbifly.com




FONTI E CREDITI :

   NOAA